[[{"header":{"parameterUnit":"m.s-1","parameterCategory":1,"la1":30.2991,"la2":30.254,"lo1":-89.0895,"lo2":-89.0444,"dy":0.0017,"dx":0.0017,"nx":28,"ny":28,"refTime":"2023-08-04T09:00:00:Z","depth":0,"parameterNumber":2,"parameterNumberName":"U-component_of_WINDS"},"data":[0,0,0,0,0,0,0,0,0,0,0,0,0,0,0,0,0,0,0,0,0,0,0,0,0,0,0,0,0,0,0,0,0,0,0,0,0,0,0,0,0,0,0,0,0,0,0,0,0,0,0,0,0,0,0,0,0,0,1.8808,1.881,0,1.8948,1.895,1.8951,1.8981,1.898,1.8979,1.8978,1.912,1.9125,1.913,0,0,0,0,0,0,0,0,0,0,0,0,0,1.8564,1.8568,1.8808,1.881,1.8811,1.8948,1.895,1.8952,1.8981,1.898,1.8979,1.8978,1.9119,1.9124,1.913,0,0,0,0,0,0,0,0,0,0,0,0,0,1.8684,1.857,1.8808,1.8843,1.8847,1.8947,1.895,1.8952,1.8982,1.898,1.8978,1.8977,1.9117,1.9124,1.9131,1.9205,0,0,1.9153,1.9156,0,0,0,0,0,0,0,0,1.8677,1.8692,1.8836,1.884,1.8846,1.8946,1.8916,1.9037,1.8982,1.893,1.8978,1.8976,1.9063,1.9075,1.9104,1.9212,1.9218,1.9153,1.9157,1.9161,1.9163,0,0,0,0,0,0,0,1.8668,1.8687,1.8863,1.8838,1.8844,1.8851,1.8866,1.8939,1.9004,1.8935,1.8937,1.8954,1.9066,1.9097,1.9108,1.922,1.9153,1.9159,1.9164,1.9166,1.9395,1.9397,0,0,0,0,0,0,1.8654,1.868,1.8859,1.8867,1.8756,1.8856,1.8873,1.8915,1.9003,1.9015,1.8955,1.8954,1.9086,1.91,1.9113,1.9205,1.916,1.9167,1.9171,1.9393,1.9395,1.9397,0,0,0,0,0,0,1.8649,1.867,1.8853,1.8774,1.8798,1.8862,1.8909,1.8919,1.895,1.9018,1.903,1.8975,1.9085,1.9103,1.9182,1.921,1.917,1.9177,1.9391,1.9394,1.9396,1.939,0,0,0,0,0,0,1.8642,1.8668,1.8697,1.8775,1.8802,1.892,1.891,1.8922,1.8963,1.8964,1.9041,1.9052,1.9085,1.9171,1.9189,1.9219,1.9182,1.9389,1.9392,1.9395,1.9388,1.9392,1.9396,0,0,0,0,0,1.8633,1.869,1.8699,1.872,1.8841,1.8922,1.8938,1.8976,1.8965,1.8995,1.9038,1.9049,1.9205,1.9179,1.9199,1.9232,1.9387,1.9391,1.9395,1.9386,1.9392,1.9396,0,0,0,0,0,0,1.8614,1.8701,1.8711,1.8796,1.8851,1.8927,1.8966,1.898,1.904,1.9038,1.9082,1.9099,1.9175,1.9212,1.9182,1.9309,1.9295,1.9304,1.9282,1.9287,1.9291,1.928,1.9188,0,0,0,0,0,1.862,1.8679,1.8752,1.8819,1.8846,1.8901,1.8938,1.8962,1.9022,1.9045,1.9094,1.9151,1.9212,1.9252,1.9312,1.9394,1.941,1.9427,1.943,1.9433,1.944,1.9484,1.9492,1.941,1.941,1.941,0,0,1.8632,1.8687,1.8722,1.8817,1.8863,1.8922,1.8921,1.8984,1.9029,1.9055,1.9132,1.917,1.9236,1.9316,1.9354,1.9349,1.9466,1.9439,1.944,1.9445,1.9489,1.9497,1.9503,1.9413,1.9413,1.9412,0,0,1.8685,1.8733,1.8793,1.8839,1.8909,1.8945,1.8959,1.9033,1.9059,1.9138,1.9158,1.9211,1.9317,1.9363,1.94,1.9469,1.9481,1.9487,1.9507,1.955,1.9556,1.9562,1.9585,1.9593,1.9493,1.9493,1.9493,0,1.8691,1.8782,1.8823,1.8885,1.8925,1.8952,1.9013,1.9056,1.9141,1.9168,1.9162,1.9294,1.934,1.9431,1.9447,1.9477,1.9494,1.9478,1.9552,1.9559,1.9565,1.9587,1.9596,1.9494,1.9494,1.9494,1.9494,0,1.8786,1.8849,1.8889,1.8971,1.9017,1.9078,1.9126,1.9167,1.9188,1.9224,1.9303,1.9359,1.9431,1.9454,1.9475,1.9548,1.9542,1.9544,1.9531,1.9572,1.9594,1.9603,1.9494,1.9494,1.9494,1.9494,0,0,1.883,1.8934,1.8948,1.8985,1.9063,1.9112,1.9174,1.9245,1.9278,1.9336,1.9388,1.9477,1.9478,1.952,1.9546,1.9584,1.9633,1.958,1.9582,1.9587,1.9715,1.9712,1.9722,1.9642,1.9644,1.9645,1.9709,0,1.8891,1.9004,1.9041,1.9134,1.9192,1.9218,1.9272,1.9325,1.936,1.9414,1.9453,1.9514,1.9512,1.9538,1.9576,1.9619,1.9659,1.9615,1.969,1.9692,1.9671,1.9734,1.9732,1.9789,1.9718,1.9719,1.972,0,1.8977,1.9037,1.9135,1.9206,1.9231,1.9279,1.9346,1.9398,1.9458,1.9481,1.9528,1.9551,1.9615,1.96,1.9689,1.9658,1.9691,1.9716,1.9719,1.9727,1.9708,1.9741,1.9808,1.9816,1.9734,1.9733,1.9732,0,1.8998,1.9103,1.9175,1.9206,1.929,1.9323,1.9359,1.9419,1.9458,1.9517,1.9543,1.9608,1.9643,1.9692,1.9732,1.9717,1.9817,1.9805,1.9837,1.9836,1.9856,1.9854,1.9928,1.9879,1.9879,1.9879,1.9879,0,1.9061,1.912,1.9185,1.9229,1.9296,1.9338,1.9402,1.944,1.9493,1.9544,1.9571,1.9618,1.9668,1.9722,1.9753,1.9821,1.9837,1.9857,1.9864,1.9854,1.9851,1.9875,1.9872,1.9881,1.9881,1.988,1.988,0,1.9095,1.9141,1.9221,1.9295,1.9314,1.936,1.9422,1.9465,1.9502,1.9566,1.9584,1.9641,1.9706,1.975,1.9833,1.9854,1.9927,1.9935,1.9907,1.991,1.9939,1.9935,2.003,2.0044,1.9987,1.9988,1.9988,0,1.9132,1.9178,1.9256,1.9293,1.9329,1.9388,1.9428,1.9472,1.9512,1.9585,1.9619,1.9685,1.9741,1.9842,1.9891,1.9954,1.9962,1.9991,1.9972,1.996,1.9961,1.9957,1.9962,1.9994,1.9994,1.9994,1.9995,0,1.9192,1.9212,1.927,1.9336,1.9383,1.9437,1.949,1.9518,1.9571,1.9615,1.9682,1.9725,1.9809,1.9874,1.9942,1.9979,1.9995,2.0,2.0011,2.0,1.9981,1.9991,1.9913,1.9998,1.9997,1.9997,1.9997,1.9997,1.9228,1.9269,1.9331,1.9394,1.9439,1.9488,1.9532,1.9574,1.963,1.9703,1.9725,1.9793,1.9852,1.9945,1.9982,2.0036,2.0034,2.0049,2.0053,2.0056,2.0055,1.9974,2.0049,2.0049,2.0049,2.0049,2.0049,0,1.9288,1.9329,1.9386,1.946,1.951,1.9522,1.9582,1.9622,1.9682,1.9735,1.9789,1.9865,1.9928,1.9981,2.0046,2.0079,2.0088,2.0094,2.0092,2.01,2.0054,2.0038,2.0086,2.0086,2.0086,2.0086,2.0086,2.0086,1.9325,1.9395,1.9423,1.9515,1.9556,1.9624,1.9656,1.9702,1.9745,1.9828,1.9881,1.9915,1.9968,2.0037,2.0095,2.0109,2.0131,2.0136,2.0151,2.0107,2.0103,2.0099,2.0084,2.0141,2.0141,2.0193,2.0193,2.0193]},{"header":{"parameterUnit":"m.s-1","parameterCategory":1,"la1":30.2991,"la2":30.254,"lo1":-89.0895,"lo2":-89.0444,"dy":0.0017,"dx":0.0017,"nx":28,"ny":28,"refTime":"2023-08-04T09:00:00:Z","depth":0,"parameterNumber":3,"parameterNumberName":"V-component_of_WINDS"},"data":[0,0,0,0,0,0,0,0,0,0,0,0,0,0,0,0,0,0,0,0,0,0,0,0,0,0,0,0,0,0,0,0,0,0,0,0,0,0,0,0,0,0,0,0,0,0,0,0,0,0,0,0,0,0,0,0,0,0,5.7008,5.7007,0,5.6976,5.6976,5.6976,5.6886,5.6884,5.6882,5.688,5.6851,5.6852,5.6853,0,0,0,0,0,0,0,0,0,0,0,0,0,5.6993,5.6993,5.7008,5.7007,5.7007,5.6976,5.6976,5.6976,5.6886,5.6884,5.6881,5.6879,5.685,5.6852,5.6853,0,0,0,0,0,0,0,0,0,0,0,0,0,5.6984,5.6994,5.7008,5.6958,5.6954,5.6977,5.6976,5.6975,5.6887,5.6884,5.6881,5.6878,5.685,5.6852,5.6853,5.6922,0,0,5.6858,5.6859,0,0,0,0,0,0,0,0,5.6985,5.6985,5.6966,5.6962,5.6957,5.6932,5.696,5.6958,5.6887,5.6912,5.688,5.6876,5.688,5.6879,5.688,5.6921,5.6919,5.6858,5.6859,5.686,5.686,0,0,0,0,0,0,0,5.6985,5.6986,5.6995,5.6966,5.696,5.6939,5.6934,5.6959,5.6913,5.691,5.6903,5.6901,5.6877,5.6879,5.6879,5.6919,5.6858,5.686,5.686,5.6861,5.7015,5.7018,0,0,0,0,0,0,5.6993,5.6987,5.6996,5.6994,5.6964,5.6942,5.6936,5.6943,5.6913,5.6905,5.6903,5.6896,5.6877,5.6877,5.6877,5.6955,5.686,5.6861,5.6862,5.7012,5.7015,5.7019,0,0,0,0,0,0,5.6993,5.6994,5.6998,5.6989,5.6987,5.6945,5.6953,5.6944,5.6945,5.6908,5.6899,5.6913,5.6875,5.6875,5.6911,5.6953,5.6862,5.6863,5.7008,5.7013,5.7017,5.7113,0,0,0,0,0,0,5.6993,5.6995,5.702,5.699,5.6988,5.7032,5.6955,5.6945,5.6948,5.6939,5.6914,5.6908,5.6873,5.6909,5.6913,5.6954,5.6865,5.7004,5.701,5.7016,5.7106,5.712,5.7133,0,0,0,0,0,5.6992,5.7049,5.7022,5.7023,5.7019,5.7034,5.7033,5.6991,5.6951,5.6977,5.6953,5.6908,5.6948,5.6914,5.6917,5.6959,5.7001,5.7008,5.7015,5.71,5.7117,5.7132,0,0,0,0,0,0,5.7086,5.7044,5.7013,5.7062,5.7052,5.7019,5.7049,5.7011,5.7013,5.7005,5.6953,5.6949,5.6992,5.6979,5.6942,5.7024,5.6967,5.6975,5.7031,5.7047,5.706,5.7062,5.6866,0,0,0,0,0,5.7112,5.7127,5.709,5.7136,5.7133,5.7092,5.7098,5.7066,5.7054,5.705,5.7028,5.702,5.703,5.7038,5.7046,5.7104,5.7097,5.7134,5.7148,5.7159,5.7166,5.7196,5.7212,5.7042,5.7042,5.7042,0,0,5.7166,5.7145,5.7158,5.7155,5.7143,5.7161,5.7089,5.7111,5.7124,5.7053,5.7086,5.707,5.7057,5.7105,5.7125,5.7095,5.7212,5.7168,5.7177,5.7178,5.7205,5.7221,5.7236,5.7047,5.7046,5.7045,0,0,5.7274,5.7259,5.7296,5.7286,5.727,5.7242,5.7252,5.7224,5.7211,5.7242,5.719,5.7205,5.7224,5.7217,5.7216,5.7321,5.7281,5.7326,5.7395,5.7425,5.7439,5.745,5.7487,5.7502,5.7333,5.7333,5.7334,0,5.7343,5.7367,5.732,5.7345,5.7345,5.7281,5.7318,5.7312,5.7299,5.7301,5.7269,5.7291,5.7278,5.7323,5.7348,5.735,5.7359,5.7327,5.744,5.7451,5.7462,5.7497,5.7511,5.7339,5.7338,5.7338,5.7337,0,5.7453,5.747,5.7502,5.749,5.7494,5.7526,5.7484,5.7494,5.7463,5.7439,5.7473,5.7455,5.7457,5.7466,5.7436,5.7507,5.7489,5.7449,5.7391,5.7484,5.7516,5.7529,5.7347,5.7345,5.7343,5.7342,0,0,5.7618,5.758,5.7592,5.7586,5.7564,5.7577,5.7605,5.7607,5.7616,5.7611,5.7633,5.7651,5.7614,5.7613,5.7582,5.7608,5.7693,5.7565,5.7564,5.7589,5.777,5.7799,5.7815,5.7666,5.7668,5.767,5.7771,0,5.7719,5.7764,5.7723,5.7777,5.7792,5.7732,5.7757,5.7747,5.7726,5.7737,5.7714,5.7728,5.7678,5.7677,5.77,5.7677,5.7728,5.767,5.7687,5.7688,5.7691,5.7832,5.7863,5.7959,5.7783,5.7785,5.7786,0,5.7842,5.7841,5.7896,5.787,5.7875,5.7898,5.7896,5.7907,5.7895,5.7878,5.7877,5.7838,5.7865,5.7809,5.7846,5.7807,5.7812,5.7803,5.7805,5.7805,5.7742,5.7835,5.7988,5.8002,5.7806,5.7804,5.7803,0,5.7956,5.7968,5.8002,5.7999,5.797,5.7987,5.7976,5.7961,5.7964,5.7964,5.7965,5.7969,5.797,5.7974,5.7938,5.79,5.7979,5.792,5.7966,5.7967,5.7985,5.7984,5.8141,5.799,5.799,5.7989,5.7989,0,5.8073,5.8109,5.8053,5.8074,5.8113,5.8066,5.8106,5.8089,5.8076,5.8093,5.8042,5.806,5.8011,5.8024,5.7996,5.8031,5.8032,5.802,5.8012,5.8024,5.8025,5.8026,5.8018,5.7993,5.7992,5.7992,5.7991,0,5.8206,5.817,5.8203,5.8173,5.8166,5.8196,5.817,5.8189,5.8165,5.8188,5.819,5.8153,5.8166,5.813,5.8137,5.8118,5.8169,5.8151,5.8173,5.8167,5.8215,5.8211,5.8376,5.8395,5.8233,5.8235,5.8236,0,5.8282,5.8308,5.828,5.8287,5.8279,5.8292,5.8295,5.8251,5.8256,5.8244,5.8265,5.8273,5.8277,5.83,5.8274,5.828,5.8261,5.8318,5.8261,5.8272,5.8261,5.8259,5.8262,5.833,5.8332,5.8334,5.8335,0,5.8421,5.8402,5.8408,5.8408,5.8413,5.8412,5.8407,5.8416,5.8369,5.8378,5.8389,5.8393,5.84,5.8409,5.8409,5.8398,5.8359,5.8353,5.8364,5.8376,5.8388,5.8382,5.8204,5.835,5.8348,5.8347,5.8346,5.8346,5.8528,5.8548,5.8531,5.854,5.8531,5.8528,5.8543,5.8521,5.853,5.8531,5.8505,5.8522,5.851,5.8505,5.8499,5.8512,5.8486,5.8502,5.8506,5.851,5.8518,5.8387,5.8512,5.8512,5.8512,5.8511,5.8511,0,5.8663,5.865,5.8658,5.8652,5.8659,5.8621,5.8614,5.8622,5.8638,5.8629,5.8633,5.8647,5.8656,5.8631,5.8636,5.8652,5.8634,5.8654,5.8652,5.8651,5.8541,5.8531,5.8669,5.8669,5.8669,5.8669,5.8668,5.8668,5.8735,5.8767,5.8746,5.8774,5.876,5.8775,5.8774,5.8771,5.8764,5.8781,5.8787,5.8771,5.8755,5.8759,5.8766,5.8758,5.8762,5.8789,5.8775,5.8674,5.8658,5.8644,5.8634,5.879,5.879,5.8883,5.8884,5.8885]}]]